Crane Lake, MN

9:38 PM CST on December 05, 2019 (GMT -0600)
Crane Lake

Weather History for KCDD - June, 2019

Change the Weather History Date:

Saturday, June 8, 2019

  Actual Average Record
Temperature  
Mean Temperature 74 °F -  
Max Temperature 84 °F 67 °F 84 °F (2019)
Min Temperature 64 °F 45 °F 28 °F (2016)
Cooling Degree Days 9    
Growing Degree Days 24 (Base 50)    
Moisture  
Dew Point 53 °F    
Average Humidity 52    
Maximum Humidity 73    
Minimum Humidity 27    
Precipitation  
Precipitation 0.00 in - - ()
Sea Level Pressure  
Sea Level Pressure 29.91 in    
Wind  
Wind Speed 8 mph (South)    
Max Wind Speed 14 mph    
Max Gust Speed 24 mph    
Visibility 10 miles    
Events      
Averages and records for this station are not official NWS values.
T = Trace of Precipitation, MM = Missing Value Source: NWS Daily Summary

Daily Weather History Graph

Daily Weather History Graph

Search for Another Location

Airport or City:

Astronomy

Jun. 08, 2019 Rise Set
Actual Time 5:10 AM CDT 9:08 PM CDT
Civil Twilight 4:29 AM CDT 9:49 PM CDT
Nautical Twilight 3:32 AM CDT 10:46 PM CDT
Astronomical Twilight 1:59 AM CDT 12:20 AM CDT
Moon 10:49 AM CDT (6/8) 1:00 AM CDT (6/8)
Length of Visible Light 17h 20m
Length of Day
15h 58m
Waxing Crescent, 33% of the Moon is Illuminated
Jun 8
Waxing Crescent
Jun 10
First Quarter
Jun 17
Full
Jun 25
Last Quarter
Jul 2
New

Hourly Weather History & Observations

Time (CDT) Temp. Heat Index Dew Point Humidity Pressure Visibility Wind Dir Wind Speed Gust Speed Precip Events Conditions
12:55 AM 69.8 °F - 53.6 °F 56% 29.88 in 10.0 mi South 6.9 mph - N/A   Clear
1:31 AM 69.8 °F - 53.6 °F 56% 29.88 in 10.0 mi South 10.4 mph - N/A   Clear
1:55 AM 69.8 °F - 53.6 °F 56% 29.88 in 10.0 mi South 8.1 mph - N/A   Clear
2:11 AM 68.0 °F - 53.6 °F 60% 29.89 in 10.0 mi South 8.1 mph - N/A   Clear
2:55 AM 68.0 °F - 53.6 °F 60% 29.91 in 10.0 mi South 6.9 mph - N/A   Clear
3:10 AM 68.0 °F - 53.6 °F 60% 29.91 in 10.0 mi South 6.9 mph - N/A   Clear
3:51 AM 66.2 °F - 51.8 °F 60% 29.91 in 10.0 mi South 5.8 mph - N/A   Clear
3:55 AM 66.2 °F - 53.6 °F 64% 29.91 in 10.0 mi South 4.6 mph - N/A   Clear
4:50 AM 66.2 °F - 53.6 °F 64% 29.91 in 10.0 mi SSE 5.8 mph - N/A   Clear
4:55 AM 66.2 °F - 53.6 °F 64% 29.91 in 10.0 mi South 5.8 mph - N/A   Clear
5:51 AM 68.0 °F - 53.6 °F 60% 29.93 in 10.0 mi South 5.8 mph - N/A   Clear
6:11 AM 68.0 °F - 55.4 °F 64% 29.92 in 10.0 mi SSE 6.9 mph - N/A   Clear
6:30 AM 68.0 °F - 55.4 °F 64% 29.93 in 10.0 mi SSE 5.8 mph - N/A   Clear
6:55 AM 68.0 °F - 55.4 °F 64% 29.93 in 10.0 mi South 9.2 mph - N/A   Clear
7:11 AM 69.8 °F - 55.4 °F 60% 29.93 in 10.0 mi South 10.4 mph - N/A   Scattered Clouds
7:30 AM 69.8 °F - 55.4 °F 60% 29.93 in 10.0 mi SSE 8.1 mph 17.3 mph N/A   Clear
7:55 AM 69.8 °F - 55.4 °F 60% 29.93 in 10.0 mi South 9.2 mph 16.1 mph N/A   Clear
8:10 AM 71.6 °F - 57.2 °F 60% 29.93 in 10.0 mi South 8.1 mph - N/A   Clear
8:31 AM 71.6 °F - 57.2 °F 60% 29.93 in 10.0 mi South 6.9 mph - N/A   Clear
8:51 AM 73.4 °F - 57.2 °F 57% 29.93 in 10.0 mi South 11.5 mph 18.4 mph N/A   Clear
8:55 AM 73.4 °F - 57.2 °F 57% 29.93 in 10.0 mi South 10.4 mph 20.7 mph N/A   Clear
9:31 AM 73.4 °F - 57.2 °F 57% 29.93 in 10.0 mi South 6.9 mph 18.4 mph N/A   Clear
9:55 AM 75.2 °F - 57.2 °F 53% 29.93 in 10.0 mi South 6.9 mph 21.9 mph N/A   Clear
10:11 AM 75.2 °F - 57.2 °F 53% 29.92 in 10.0 mi SSE 13.8 mph 20.7 mph N/A   Clear
10:50 AM 77.0 °F - 57.2 °F 50% 29.93 in 10.0 mi South 11.5 mph 18.4 mph N/A   Clear
10:55 AM 77.0 °F - 57.2 °F 50% 29.93 in 10.0 mi SSW 12.7 mph 18.4 mph N/A   Clear
11:55 AM 80.6 °F 80.5 °F 55.4 °F 42% 29.92 in 10.0 mi South 13.8 mph 20.7 mph N/A   Clear
12:55 PM 82.4 °F 81.7 °F 55.4 °F 39% 29.91 in 10.0 mi South 13.8 mph 20.7 mph N/A   Clear
1:11 PM 82.4 °F 81.4 °F 53.6 °F 37% 29.90 in 10.0 mi SSE 9.2 mph 19.6 mph N/A   Clear
1:55 PM 82.4 °F 81.4 °F 53.6 °F 37% 29.89 in 10.0 mi South 11.5 mph 20.7 mph N/A   Clear
2:55 PM 84.2 °F - 50.0 °F 30% 29.89 in 10.0 mi South 13.8 mph 23.0 mph N/A   Clear
3:55 PM 84.2 °F - 48.2 °F 29% 29.87 in 10.0 mi South 9.2 mph 24.2 mph N/A   Clear
4:51 PM 84.2 °F - 48.2 °F 29% 29.87 in 10.0 mi South 10.4 mph 19.6 mph N/A   Clear
6:11 PM 84.2 °F - 46.4 °F 27% 29.87 in 10.0 mi South 6.9 mph 20.7 mph N/A   Clear
6:30 PM 84.2 °F - 46.4 °F 27% 29.87 in 10.0 mi SSE 8.1 mph - N/A   Clear
6:51 PM 84.2 °F - 46.4 °F 27% 29.87 in 10.0 mi South 11.5 mph 17.3 mph N/A   Clear
6:55 PM 82.4 °F - 46.4 °F 28% 29.87 in 10.0 mi South 6.9 mph 17.3 mph N/A   Clear
7:10 PM 82.4 °F - 46.4 °F 28% 29.87 in 10.0 mi SSE 9.2 mph - N/A   Clear
7:55 PM 78.8 °F - 46.4 °F 32% 29.88 in 10.0 mi South 8.1 mph - N/A   Clear
8:55 PM 69.8 °F - 51.8 °F 53% 29.89 in 10.0 mi Calm Calm - N/A   Clear
9:30 PM 66.2 °F - 53.6 °F 64% 29.89 in 10.0 mi Calm Calm - N/A   Clear
9:55 PM 64.4 °F - 55.4 °F 73% 29.90 in 10.0 mi Calm Calm - N/A   Clear
10:30 PM 64.4 °F - 55.4 °F 73% 29.91 in 10.0 mi Calm Calm - N/A   Mostly Cloudy
10:55 PM 66.2 °F - 53.6 °F 64% 29.91 in 10.0 mi Calm Calm - N/A   Scattered Clouds
11:55 PM 66.2 °F - 53.6 °F 64% 29.94 in 10.0 mi Calm Calm - N/A   Scattered Clouds